Wetbulb
46.12 49.15 48.83 48.29 48.70 50.16 49.65 50.01 48.41 51.52 52.04 55.31 56.81 59.85 61.38 62.08 64.13 65.70 66.46 67.09 67.34 68.28 68.40 68.93 69.37 69.91 70.69 71.04 71.17 69.97 68.72 68.25 67.67 66.76 66.83 69.64 72.17 73.15 72.25 72.09 70.85 69.29 67.85 68.59
44.58 49.17 49.44 47.99 49.10 49.25 52.02 53.60 53.54 54.84 53.41 59.83 60.83 62.24 62.01 63.71 62.56 64.88 65.64 67.17 67.92 68.57 68.90 69.06 70.15 70.34 70.66 70.88 70.48 69.85 68.74 68.48 69.16 68.79 72.72 72.84 72.52 72.22 71.35 70.87 69.32 68.47 68.73 66.84
39.90 47.28 47.46 44.64 47.66 48.53 48.72 50.12 56.27 51.59 54.75 60.58 58.83 60.76 61.37 62.82 59.61 64.24 65.08 66.44 67.44 68.77 69.67 70.35 71.05 71.38 70.48 70.86 70.98 69.74 69.71 69.42 70.19 71.41 73.33 72.25 71.85 70.66 69.71 69.05 68.24 67.97 65.79 63.05
42.18 44.40 38.54 46.94 51.29 51.69 50.16 51.00 50.38 58.57 58.68 60.12 60.06 61.28 62.25 64.49 61.92 63.12 66.24 66.36 68.84 69.71 70.15 71.54 72.23 72.28 72.07 71.45 70.97 71.13 71.21 71.07 72.98 73.61 72.15 71.51 71.34 70.32 69.58 68.73 68.09 66.79 63.34 62.66
42.37 42.17 45.46 49.52 51.34 51.02 48.53 48.81 52.38 56.99 59.15 60.47 61.55 62.33 61.68 64.82 66.07 65.73 67.01 68.10 69.90 70.70 71.47 71.88 72.01 72.56 72.46 71.70 71.90 72.65 72.75 73.44 73.98 73.19 72.42 71.57 71.38 69.69 68.84 67.58 67.37 65.35 63.20 61.49
44.49 41.96 40.94 49.01 54.45 56.83 55.27 46.84 62.04 60.81 58.83 59.15 59.67 53.84 58.88 63.22 65.52 65.55 67.01 69.00 70.38 71.15 72.14 71.94 72.13 73.03 73.35 71.86 72.69 72.45 73.18 74.14 74.65 73.61 72.41 71.42 70.32 69.94 70.13 68.10 66.61 65.40 63.04 61.21
44.40 42.69 46.90 54.00 56.40 57.62 49.03 51.61 62.45 63.15 60.22 59.98 58.29 59.27 63.20 64.62 63.74 65.90 66.98 68.26 70.67 71.48 71.44 71.84 72.81 73.23 72.78 73.25 72.57 74.31 74.64 74.66 74.01 72.89 72.04 70.95 70.48 69.77 69.95 67.25 65.16 63.85 62.59 60.59
44.03 42.20 41.56 55.96 55.95 52.45 57.63 61.04 61.29 61.14 63.34 62.71 62.56 65.53 64.94 63.40 64.63 65.99 66.55 67.49 67.28 70.60 70.67 72.39 73.23 73.49 72.77 72.70 74.42 75.45 76.17 74.82 73.65 72.40 71.96 71.44 70.81 70.00 68.83 66.27 64.30 62.18 60.52 58.84
47.40 46.68 54.36 55.54 54.03 61.44 62.30 60.07 59.86 59.96 62.16 62.48 62.32 63.05 64.15 64.72 60.81 63.59 66.49 66.90 67.86 67.78 69.77 73.12 73.62 73.57 73.90 74.05 76.44 75.68 75.83 74.30 72.97 72.00 71.55 71.58 70.35 69.38 67.58 65.54 62.94 61.02 59.34 56.72
50.10 52.45 54.60 59.18 60.64 62.49 62.55 60.90 61.33 61.26 60.95 61.55 60.27 61.07 61.74 64.70 65.15 64.42 66.46 67.28 66.57 65.78 69.02 71.78 73.88 73.97 74.52 76.82 77.33 76.67 74.71 73.57 72.67 71.65 70.96 71.51 70.55 69.65 67.44 64.82 61.94 60.72 58.97 56.59
50.23 51.85 55.50 59.92 60.03 59.64 61.25 61.25 60.62 60.42 59.55 59.26 60.28 60.27 61.01 62.01 64.04 64.85 67.36 67.85 66.63 65.04 67.91 71.66 74.02 74.28 75.58 77.23 77.97 76.20 74.81 73.84 72.32 71.66 70.93 70.66 69.95 69.35 67.30 66.45 63.34 62.05 60.73 59.16
44.62 50.03 49.76 53.84 55.75 59.60 59.39 58.88 59.05 59.27 57.84 58.51 57.82 58.01 60.31 61.70 62.62 63.31 65.53 67.55 68.98 69.34 71.14 72.39 73.83 74.48 75.92 77.91 78.08 76.33 74.93 73.88 72.53 71.32 70.87 70.19 69.43 65.01 53.34 57.76 56.28 55.14 55.09 58.80
48.04 51.49 51.61 52.95 54.51 55.48 59.30 59.28 59.06 57.69 58.16 56.80 57.28 57.41 56.72 57.72 60.83 61.64 63.96 63.81 65.68 67.87 69.94 73.07 74.03 74.87 76.59 77.98 78.02 76.62 74.58 73.92 72.67 70.58 71.12 69.89 69.34 68.11 65.70 54.15 51.86 52.17 52.35 52.96
52.16 51.77 50.16 53.03 51.31 54.41 54.79 55.31 57.81 58.50 57.68 56.78 56.14 56.85 57.48 56.99 57.94 61.50 61.77 62.57 64.45 67.49 70.09 74.66 74.62 75.04 77.15 78.15 78.04 76.44 75.00 66.05 72.50 72.29 71.43 70.08 69.56 69.18 66.96 64.50 58.66 60.12 51.31 53.74
51.80 52.25 51.41 52.38 52.97 53.49 54.18 53.92 53.30 53.26 55.76 55.66 55.51 56.00 56.62 56.50 57.03 57.58 61.81 62.33 63.28 66.51 70.01 71.29 75.37 75.77 77.79 78.54 77.87 76.09 74.04 72.46 72.13 71.61 71.54 69.65 70.00 69.31 66.68 64.80 60.70 61.35 54.49 50.40
53.08 53.66 53.71 52.78 52.96 54.00 54.13 54.37 52.85 52.48 53.83 54.14 54.17 54.71 55.73 56.28 56.33 56.19 58.62 61.93 60.27 60.55 69.35 70.34 71.81 76.64 77.79 78.66 77.79 76.31 74.76 69.50 70.07 71.56 71.81 70.50 70.53 69.42 66.64 65.16 62.39 61.38 60.77 58.56
50.82 49.95 51.26 51.58 52.49 53.48 54.08 54.81 54.91 54.66 55.13 54.25 53.97 55.11 55.87 56.18 55.93 55.58 56.54 59.70 60.75 64.04 65.87 68.00 69.58 74.79 77.54 77.76 78.14 77.00 75.21 72.85 70.68 72.17 72.15 71.06 71.10 69.38 67.65 65.53 63.60 62.28 62.20 60.75
52.62 52.46 52.40 53.55 52.80 53.08 53.53 54.47 55.12 55.26 54.63 56.31 56.49 56.20 55.01 54.86 55.12 56.02 57.44 58.70 59.44 60.51 62.93 67.02 69.90 72.17 76.14 77.02 77.50 77.37 75.86 74.66 72.57 73.13 72.28 71.78 71.25 70.26 68.26 65.85 64.66 63.10 62.63 61.13
54.13 55.12 56.05 55.89 54.83 54.03 53.89 54.31 54.82 55.18 55.70 55.84 56.12 55.82 56.19 55.37 56.03 56.78 57.07 57.06 57.58 58.12 60.62 65.69 66.63 68.38 72.87 75.61 75.04 76.95 76.63 75.13 74.43 73.04 73.24 69.41 70.17 70.73 68.43 66.41 65.18 64.30 63.08 60.86
55.69 56.55 56.37 55.89 55.96 55.19 54.20 54.87 55.34 55.35 55.65 56.01 55.89 55.51 55.28 55.62 56.64 57.02 57.07 56.96 57.83 59.29 61.30 64.66 65.63 67.08 71.46 75.91 70.49 76.36 76.12 75.56 74.76 73.96 72.90 72.72 71.97 70.80 69.19 62.00 65.25 64.79 64.16 62.28
53.93 54.27 54.20 54.15 54.11 54.77 55.08 55.28 55.08 54.62 55.71 55.87 55.11 54.96 55.36 56.00 57.25 57.92 56.65 56.51 56.97 59.47 61.02 61.94 63.65 65.27 69.09 73.03 72.63 75.62 75.64 74.94 74.51 74.21 73.08 72.09 72.15 70.89 69.56 67.80 65.80 65.35 65.05 64.07
53.08 52.94 53.49 53.82 53.51 53.68 54.97 55.63 55.80 55.75 55.68 55.84 55.97 55.85 55.92 56.11 56.32 57.15 58.65 56.44 57.32 57.49 60.28 61.27 62.78 65.45 67.88 67.90 74.34 75.01 75.36 74.93 74.43 73.52 73.61 72.55 72.08 71.92 69.42 68.11 66.80 65.81 65.48 65.37
51.97 52.36 52.35 52.06 52.18 53.19 54.25 54.44 54.66 55.29 55.35 56.82 56.15 56.06 55.92 56.50 57.46 55.94 55.06 58.50 60.12 58.86 59.88 60.49 60.81 61.84 61.81 67.72 71.98 74.39 74.47 74.52 74.27 74.05 73.35 72.97 72.91 71.62 71.00 68.47 67.82 67.18 65.42 65.15
51.91 52.25 52.54 53.36 53.95 53.54 52.89 54.37 55.14 56.09 56.81 57.15 58.22 58.01 57.30 56.52 57.22 58.98 58.34 56.07 55.44 55.90 57.99 59.25 58.82 58.04 58.59 66.12 71.45 73.66 74.08 74.06 74.06 73.78 73.73 64.51 72.93 72.81 71.71 71.53 68.38 67.91 67.00 61.22
53.43 54.19 53.88 53.77 53.72 53.59 54.18 54.53 55.18 55.79 56.55 57.21 58.96 59.21 58.90 59.40 58.26 58.47 57.95 57.87 54.87 55.24 58.31 57.69 58.09 57.98 61.53 66.75 71.84 72.84 73.79 73.76 73.60 73.26 72.97 72.68 72.35 70.92 71.80 71.06 71.58 69.16 67.48 66.96
55.47 55.85 56.11 56.44 56.16 56.12 56.59 56.55 55.76 56.76 57.04 56.70 58.83 59.53 59.83 60.08 59.98 58.55 57.98 56.29 57.90 56.48 57.27 57.18 58.09 60.89 66.48 69.05 71.93 72.53 73.43 73.73 71.72 69.15 70.60 71.72 71.34 72.14 72.25 71.30 69.05 66.42 66.44 65.85
55.89 52.87 55.43 56.45 56.97 56.26 55.60 55.79 56.25 55.93 56.26 56.77 56.02 58.72 59.38 59.64 59.42 57.74 55.69 57.58 57.35 57.41 57.76 59.19 62.16 65.21 70.13 71.72 71.84 72.63 73.22 72.71 68.25 71.41 71.19 70.99 71.29 71.16 69.48 69.47 68.61 67.84 67.74 67.37
MSLP
998.45 998.34 997.88 997.63 997.63 997.91 998.64 999.35 1001.49 1002.57 1003.41 1003.01 1003.28 1004.01 1005.19 1004.80 1002.61 1000.97 1001.85 1002.86 1003.49 1004.41 1005.48 1006.40 1007.45 1008.29 1009.20 1010.19 1011.33 1012.36 1013.29 1014.01 1014.52 1015.11 1015.58 1015.89 1016.54 1016.60 1017.25 1017.78 1018.20 1018.60 1018.85 1019.16
998.99 998.72 998.23 997.80 997.24 997.17 997.47 997.93 999.88 1001.14 1002.53 1002.28 1001.32 1001.05 1002.84 1002.61 1003.11 1001.13 1001.69 1002.50 1003.18 1004.05 1005.01 1006.06 1006.97 1007.80 1008.80 1009.89 1010.80 1011.68 1012.68 1013.33 1013.73 1014.50 1015.08 1015.59 1016.10 1016.61 1017.30 1017.82 1018.26 1018.67 1019.02 1019.33
999.72 999.34 998.84 998.10 997.24 996.74 996.84 996.97 998.66 1000.22 1001.16 1001.30 1001.35 1000.34 1001.01 1002.22 1003.09 1000.96 1001.13 1002.01 1002.77 1003.59 1004.52 1005.45 1006.38 1007.15 1008.44 1009.45 1010.42 1011.31 1012.22 1012.95 1013.42 1014.11 1014.91 1015.43 1016.12 1016.73 1017.35 1017.91 1018.35 1018.75 1019.24 1019.46
1000.28 1000.06 999.29 998.03 996.75 996.31 996.44 996.50 996.70 998.72 1000.19 1000.33 999.86 999.27 1000.55 1002.90 1003.91 1002.63 1000.79 1001.25 1002.23 1003.17 1004.11 1005.00 1005.90 1006.84 1008.03 1009.06 1010.08 1010.98 1011.80 1012.45 1013.18 1013.87 1014.55 1015.27 1016.08 1016.79 1017.32 1017.79 1018.37 1018.84 1019.33 1019.58
1000.50 1000.29 999.27 997.74 996.77 996.44 996.18 996.33 996.14 998.15 998.98 998.96 1000.23 1001.52 1002.13 1003.57 1003.48 1001.90 1000.37 1000.39 1001.52 1002.49 1003.55 1004.70 1005.67 1006.68 1007.56 1008.79 1009.66 1010.59 1011.38 1011.94 1012.66 1013.33 1014.29 1015.13 1015.89 1016.57 1017.12 1017.75 1018.25 1018.85 1019.22 1019.57
1000.91 1000.41 999.15 997.76 996.21 995.59 995.60 996.70 996.48 996.34 998.21 998.96 999.53 1000.23 1001.59 1001.94 1001.08 1000.13 1000.54 1000.36 1001.19 1002.22 1003.39 1004.33 1005.41 1006.28 1007.38 1008.45 1009.23 1010.08 1010.84 1011.42 1012.08 1012.98 1013.98 1014.92 1015.60 1016.24 1016.75 1017.37 1017.96 1018.52 1019.05 1019.41
1001.01 1000.28 998.87 997.16 996.52 995.70 996.85 998.74 997.59 997.57 998.28 999.24 999.80 999.84 998.89 999.88 1000.37 999.45 1000.24 1000.32 1001.08 1002.05 1003.15 1004.04 1005.04 1005.96 1007.07 1008.09 1008.74 1009.41 1010.23 1010.88 1011.85 1012.71 1013.61 1014.46 1015.19 1015.76 1016.33 1017.09 1017.70 1018.34 1018.93 1019.34
1001.01 1000.34 999.20 997.11 997.16 997.66 998.23 998.62 998.68 998.71 998.76 999.15 999.71 1000.53 1000.95 1002.28 1000.37 1001.79 1001.57 1001.43 1001.89 1002.32 1002.79 1003.65 1004.45 1005.50 1006.62 1007.51 1008.42 1009.15 1009.97 1010.78 1011.61 1012.41 1013.28 1014.16 1014.77 1015.45 1016.07 1016.77 1017.51 1018.23 1018.89 1019.44
1000.30 999.62 998.71 997.35 997.79 997.92 998.03 998.98 999.50 999.49 999.76 999.89 1000.52 1001.10 1001.62 1001.48 1001.86 1001.67 1001.82 1002.22 1002.99 1003.48 1003.28 1003.27 1003.86 1004.54 1005.74 1006.82 1007.86 1008.89 1009.80 1010.61 1011.38 1012.23 1012.92 1013.70 1014.41 1015.06 1015.79 1016.47 1017.17 1017.97 1018.53 1019.05
1000.30 999.31 998.90 998.46 997.99 998.02 998.36 999.12 999.77 1000.08 1000.43 1000.51 1001.07 1001.48 1002.12 1002.41 1002.56 1002.79 1002.51 1001.76 1002.41 1003.17 1003.63 1003.77 1003.22 1003.93 1004.57 1005.85 1007.00 1008.24 1009.41 1010.48 1011.28 1011.82 1012.58 1013.25 1013.86 1014.32 1015.13 1015.91 1016.66 1017.30 1017.95 1018.57
1000.66 1000.64 999.52 999.35 999.39 999.07 999.20 999.55 1000.18 1000.55 1000.88 1001.19 1001.56 1002.16 1002.49 1002.95 1003.65 1003.63 1003.46 1002.52 1001.70 1001.47 1002.72 1002.91 1002.78 1003.45 1004.44 1005.39 1006.33 1007.48 1008.61 1009.79 1010.84 1011.57 1012.02 1012.70 1013.16 1013.49 1014.17 1014.79 1015.36 1016.09 1016.76 1017.32
1003.08 1002.84 1002.34 1001.73 1000.63 1000.09 1000.01 1000.33 1000.58 1000.85 1001.22 1001.35 1001.53 1001.93 1002.37 1003.23 1003.98 1004.35 1004.35 1004.27 1004.15 1002.35 1001.41 1001.99 1002.38 1002.92 1003.74 1004.65 1005.45 1006.62 1007.88 1009.06 1010.03 1010.88 1011.69 1012.20 1012.65 1013.37 1013.82 1014.23 1014.91 1015.49 1015.99 1016.28
1003.64 1003.32 1002.84 1002.16 1001.28 1000.90 1000.80 1000.65 1000.82 1000.91 1001.20 1001.64 1001.90 1002.20 1002.44 1002.94 1002.57 1003.03 1003.69 1003.45 1002.36 1002.05 1002.09 1002.09 1002.86 1002.95 1002.96 1003.93 1005.06 1006.08 1007.02 1008.17 1009.36 1010.12 1010.77 1011.45 1012.10 1012.69 1013.49 1014.29 1014.34 1014.66 1015.08 1015.54
1003.60 1003.61 1003.31 1002.67 1002.18 1001.73 1001.67 1001.43 1001.25 1000.93 1001.23 1001.68 1002.04 1002.24 1002.51 1002.88 1002.58 1002.75 1003.05 1003.10 1002.83 1002.72 1002.05 1001.77 1002.24 1002.54 1002.64 1003.08 1004.22 1005.30 1006.16 1007.04 1008.23 1009.07 1009.75 1010.52 1011.05 1011.58 1012.52 1013.27 1013.97 1014.34 1014.59 1014.90
1003.70 1003.71 1003.64 1003.25 1002.91 1002.49 1002.40 1002.27 1002.08 1002.07 1002.01 1002.18 1002.19 1002.59 1002.53 1002.86 1003.18 1003.27 1002.96 1002.77 1003.07 1003.04 1002.62 1002.39 1001.88 1002.11 1002.50 1002.95 1003.82 1004.74 1005.66 1006.60 1007.43 1008.30 1009.01 1009.67 1010.34 1010.99 1011.58 1012.21 1012.88 1013.35 1014.07 1014.57
1003.82 1003.46 1003.40 1003.44 1003.50 1003.40 1003.30 1003.22 1003.12 1002.95 1002.99 1003.00 1003.05 1003.00 1003.11 1003.17 1003.17 1003.19 1003.23 1003.01 1003.05 1003.41 1003.14 1003.07 1002.98 1002.24 1001.96 1002.37 1003.27 1004.20 1004.97 1005.73 1006.56 1007.35 1008.04 1008.87 1009.39 1009.90 1010.33 1010.80 1011.42 1011.99 1012.53 1013.07
1003.57 1003.72 1003.86 1003.78 1003.89 1003.97 1004.09 1004.12 1004.10 1003.96 1003.73 1003.54 1003.39 1003.25 1003.33 1003.49 1003.48 1003.36 1003.30 1003.24 1003.11 1003.15 1003.21 1002.94 1002.58 1002.04 1001.66 1001.83 1002.57 1003.36 1004.29 1005.02 1005.70 1006.44 1006.89 1007.37 1007.91 1008.41 1008.90 1009.47 1009.92 1010.41 1010.71 1011.30
1003.47 1003.53 1003.76 1003.79 1003.93 1004.09 1004.30 1004.62 1004.75 1004.47 1004.35 1004.21 1003.67 1003.49 1003.38 1003.48 1003.71 1003.58 1003.34 1003.18 1003.12 1002.83 1002.48 1002.25 1002.19 1001.71 1001.46 1001.32 1001.67 1002.53 1003.39 1004.01 1004.67 1004.78 1005.51 1005.94 1006.46 1007.10 1007.64 1008.01 1008.45 1008.98 1009.59 1010.36
1003.81 1003.78 1003.87 1003.92 1003.87 1003.98 1004.13 1004.34 1004.48 1004.62 1004.23 1004.19 1004.15 1003.77 1003.40 1003.24 1003.17 1003.19 1003.20 1003.01 1002.85 1002.81 1002.16 1002.21 1001.86 1001.66 1001.30 1001.12 1001.11 1001.86 1002.38 1002.91 1003.27 1003.82 1004.01 1004.59 1005.26 1005.68 1006.22 1006.71 1007.04 1007.46 1008.13 1008.98
1004.17 1003.97 1003.97 1003.93 1003.94 1004.01 1003.95 1003.89 1003.95 1003.80 1003.81 1003.79 1003.66 1003.52 1003.24 1002.80 1002.86 1002.74 1002.64 1002.40 1002.16 1001.99 1001.96 1001.97 1001.73 1001.52 1001.24 1000.52 1000.61 1001.04 1001.62 1001.80 1001.88 1002.33 1003.00 1003.34 1003.74 1004.27 1004.70 1005.17 1005.69 1006.17 1006.61 1007.12
1004.81 1004.22 1003.92 1003.84 1003.60 1003.37 1003.27 1003.21 1002.97 1002.59 1002.75 1002.89 1002.80 1002.61 1002.57 1002.39 1002.03 1002.11 1002.01 1001.77 1001.31 1001.33 1001.34 1001.19 1001.22 1000.90 1000.59 1000.21 1000.16 1000.36 1000.49 1000.64 1001.10 1001.42 1001.69 1002.04 1002.38 1002.74 1003.22 1003.70 1004.17 1004.58 1004.98 1005.52
1003.66 1003.15 1002.74 1002.54 1002.50 1002.24 1002.12 1001.87 1001.55 1001.35 1001.27 1001.26 1001.39 1001.46 1001.53 1001.26 1001.25 1000.97 1000.80 1000.78 1000.79 1000.76 1000.61 1000.54 1000.31 999.86 999.67 999.77 999.59 999.31 999.45 999.76 1000.01 1000.44 1000.70 1000.89 1001.40 1001.20 1001.58 1002.01 1002.40 1002.78 1003.29 1003.77
1002.84 1002.27 1001.90 1001.67 1001.31 1000.84 1000.65 1000.38 1000.15 1000.11 999.68 999.43 999.51 999.78 999.87 999.91 999.94 999.90 999.59 999.90 999.96 999.98 1000.01 999.88 999.60 999.40 999.09 998.98 998.90 998.64 998.58 998.79 999.07 999.36 999.58 999.81 1000.00 1000.11 1000.21 1000.45 1000.84 1001.28 1001.66 1002.03
1001.48 1000.95 1000.43 1000.04 999.73 999.41 998.84 998.65 998.61 998.26 997.94 997.82 997.62 997.83 998.28 998.47 998.38 998.31 998.61 998.76 998.86 998.99 999.02 998.98 998.80 998.65 998.60 998.56 998.26 997.86 997.78 997.86 998.06 998.35 998.80 998.91 998.93 999.02 999.19 999.25 999.63 999.91 1000.35 1000.67
999.47 998.84 998.32 997.98 997.47 996.90 996.71 996.83 996.88 996.43 996.23 996.05 995.77 995.86 996.32 996.66 996.80 997.17 997.47 997.72 997.85 997.84 997.94 997.89 997.76 997.53 997.58 997.66 997.30 996.81 996.73 996.87 997.10 997.50 997.95 998.22 998.37 998.50 998.47 998.71 998.21 998.56 999.09 999.36
997.62 997.02 996.37 995.57 994.96 994.55 994.47 994.52 994.47 994.52 994.48 994.35 994.00 994.14 994.61 995.20 995.72 996.02 996.34 996.54 996.68 996.78 996.89 996.88 996.68 996.50 996.28 996.01 995.91 995.79 995.86 996.02 996.27 996.63 996.93 997.21 997.35 997.40 997.75 997.66 998.33 998.64 999.07 999.30
996.32 995.42 994.49 993.53 992.81 992.69 992.58 992.78 992.99 993.04 993.20 993.16 992.93 992.98 993.46 994.00 994.38 994.89 995.31 995.63 995.84 996.01 996.06 995.83 995.50 995.15 994.87 994.62 994.59 994.75 994.91 995.15 995.46 995.81 995.95 996.20 996.24 996.50 997.23 997.59 997.75 998.00 998.26 998.69
Wind_Speed
7 7 9 11 10 10 9 8 9 10 9 8 6 19 8 16 13 20 19 19 19 18 16 15 14 13 16 14 14 12 12 11 10 7 7 7 7 7 8 8 7 6 6 5
6 9 12 15 12 11 6 7 10 14 4 4 6 12 8 4 9 18 17 23 20 19 17 17 16 16 15 14 17 16 14 13 12 10 7 8 9 9 9 8 7 6 5 6
5 7 10 11 7 7 9 7 17 9 8 8 4 11 5 20 8 14 16 19 15 19 18 17 16 17 15 15 15 14 13 11 9 8 10 10 8 9 8 8 6 6 7 8
4 3 8 8 10 11 9 9 5 21 19 18 19 21 17 4 11 15 15 11 18 17 15 15 15 15 13 14 14 14 12 11 11 11 11 11 10 10 9 6 6 6 7 7
5 5 8 7 12 13 7 10 9 22 20 14 10 10 22 8 19 10 9 15 18 17 16 14 16 13 15 13 14 12 13 13 13 12 12 11 11 11 9 7 5 6 7 8
4 1 5 9 12 8 9 2 19 13 21 17 9 4 9 11 21 21 11 14 18 18 17 17 15 15 14 14 14 13 13 13 13 13 13 12 12 11 10 7 6 7 6 7
4 4 5 7 8 6 8 2 12 12 11 9 5 1 12 6 12 15 6 13 19 19 18 17 16 15 14 14 15 13 12 13 13 12 12 12 11 7 9 8 7 7 7 6
3 3 8 7 8 4 5 9 10 8 11 13 8 12 16 6 11 9 8 8 6 17 16 15 17 16 14 15 12 11 13 14 13 13 11 10 12 8 9 9 8 7 7 5
9 7 6 12 4 5 12 10 8 9 9 10 10 10 12 13 13 8 6 7 8 9 11 15 18 19 17 14 15 14 13 14 13 13 11 11 12 11 9 8 8 8 7 6
3 8 3 8 11 8 12 10 9 9 9 9 11 9 10 12 8 7 9 4 9 9 6 12 18 18 18 18 18 16 16 14 12 13 12 12 10 10 10 9 8 8 8 7
5 14 10 10 7 7 11 11 9 9 9 9 9 9 8 8 9 6 4 8 8 9 7 19 17 17 15 17 18 16 15 14 13 10 12 12 11 11 11 10 11 11 10 10
2 6 2 7 9 6 9 9 8 8 8 8 9 8 8 6 9 5 2 2 6 18 21 20 17 18 17 18 19 18 15 12 11 10 10 10 10 6 4 3 13 13 13 11
4 8 9 9 8 13 7 8 4 5 7 7 6 5 5 2 4 6 5 3 8 8 6 12 16 18 18 18 18 17 15 14 10 11 11 11 11 10 11 2 3 13 17 18
8 10 10 9 7 9 10 11 6 3 2 3 4 2 2 3 6 7 5 4 7 8 9 7 13 15 15 17 18 17 15 17 13 13 11 11 12 11 9 11 9 10 6 10
10 8 10 11 9 9 8 9 11 8 6 6 6 6 4 4 4 5 6 5 6 6 7 8 10 13 14 16 17 17 14 12 12 12 11 11 10 11 9 10 9 9 3 2
7 7 7 7 7 8 8 10 8 8 7 6 6 7 6 6 4 3 5 6 6 5 5 6 7 8 14 16 17 14 14 17 15 12 11 12 11 12 11 12 11 11 11 12
4 4 7 7 7 6 7 7 8 9 10 8 7 7 6 6 6 5 5 5 5 5 5 4 6 7 12 13 17 12 12 11 19 12 13 13 13 13 12 12 11 12 13 12
3 4 7 6 5 6 7 6 10 13 12 13 9 8 8 6 6 7 7 5 6 8 7 7 6 7 7 15 13 12 11 11 13 14 13 12 14 12 13 12 13 12 11 11
6 4 5 7 8 7 9 12 10 11 15 12 14 10 8 8 7 7 7 8 7 7 10 6 11 9 7 10 13 10 12 12 13 13 12 13 13 13 12 13 13 13 12 11
8 7 9 10 10 12 13 14 17 15 14 14 14 16 12 8 7 8 8 11 11 8 6 7 8 9 8 11 14 10 12 14 13 12 13 13 13 14 13 15 14 13 12 13
15 15 17 17 16 18 18 18 18 19 16 16 18 18 16 9 8 8 8 9 9 8 8 12 10 11 7 9 10 12 11 10 12 13 12 15 14 13 14 14 14 14 13 12
17 18 19 17 17 19 18 18 19 18 18 20 19 19 17 17 11 10 10 11 7 12 8 9 10 14 12 12 8 11 12 13 11 10 12 12 15 14 14 15 15 14 14 12
18 19 20 20 20 20 18 19 20 22 23 20 20 19 18 14 13 12 13 8 7 9 8 10 12 15 14 9 8 10 12 13 13 13 12 11 14 14 12 14 15 14 12 13
19 20 21 21 20 19 22 19 20 21 20 20 20 20 16 14 15 14 11 9 15 17 14 14 15 19 19 10 11 11 11 11 12 11 14 10 11 14 14 13 12 13 14 10
18 19 19 19 20 18 21 19 18 20 20 18 18 18 20 15 15 10 10 12 15 13 12 13 17 21 14 12 13 9 10 10 10 9 10 11 10 6 11 13 13 12 10 12
15 12 12 18 17 13 12 13 13 13 12 13 13 14 13 13 13 12 10 10 10 9 11 14 14 14 12 14 12 12 9 10 8 7 8 7 8 10 6 10 3 3 3 4
12 15 12 10 10 12 10 10 11 12 13 14 12 9 12 12 12 13 12 12 12 13 12 12 12 13 11 12 12 11 10 7 7 7 6 6 5 4 6 5 5 6 5 5
Wind_Direction
295 295 281 274 279 269 196 203 152 196 193 246 153 145 234 266 277 141 148 161 161 162 164 157 157 154 163 154 151 149 161 167 173 175 171 184 178 137 117 116 123 136 137 147
306 314 308 298 297 297 283 216 80 141 179 221 354 326 149 310 291 147 149 167 171 163 158 160 158 159 159 148 158 161 164 171 167 170 157 144 134 120 124 129 138 142 158 127
257 281 297 297 277 294 298 296 140 156 186 142 71 322 275 187 244 157 159 157 158 160 162 160 159 159 162 159 156 162 160 168 168 162 145 141 133 128 133 147 148 149 116 117
216 275 259 256 294 282 277 268 288 130 170 180 172 198 244 38 299 287 161 152 154 160 157 157 155 153 142 157 160 163 167 170 162 155 145 141 140 144 150 148 156 149 137 137
170 207 247 279 265 259 251 272 260 158 181 172 173 189 238 165 272 244 192 156 159 158 155 149 155 151 147 155 159 154 161 160 155 151 148 148 148 153 156 153 160 139 152 142
318 256 233 236 256 279 291 118 42 54 174 169 189 131 170 188 195 205 230 156 156 157 154 153 158 155 144 159 162 167 163 158 154 150 151 153 154 162 163 156 152 144 140 147
288 242 288 282 337 29 358 176 61 50 117 121 103 185 29 29 253 203 203 156 151 155 158 162 158 159 153 157 172 162 156 150 148 151 149 151 154 162 149 148 146 145 139 157
257 293 257 288 20 64 178 63 70 41 71 79 86 78 100 294 71 111 58 56 122 159 163 160 159 159 163 169 159 150 148 153 153 150 151 155 156 156 152 153 148 148 143 157
187 216 265 294 121 95 98 98 65 56 61 87 72 51 65 61 59 38 106 119 80 31 175 165 167 169 167 170 154 155 153 158 154 151 155 159 162 164 160 154 158 162 165 165
33 250 82 25 54 79 101 91 81 69 58 66 81 61 64 64 52 72 12 345 159 150 202 203 176 178 173 162 159 152 158 161 161 160 162 165 170 169 172 169 170 171 174 178
273 24 347 62 74 83 95 94 86 76 71 66 77 86 84 84 83 66 23 330 332 303 245 202 186 175 169 165 160 158 161 162 166 170 168 168 178 178 184 188 182 183 186 183
301 334 304 340 354 359 92 84 77 87 73 52 51 55 63 99 127 120 120 255 261 265 230 191 180 172 170 170 168 161 163 166 169 167 175 176 178 168 57 196 186 188 181 189
339 345 335 308 342 2 55 114 120 81 95 87 37 39 28 36 45 78 106 330 4 360 347 167 200 181 171 170 172 170 167 171 171 174 177 180 187 186 193 65 67 204 195 196
335 345 334 344 336 358 2 349 358 131 183 150 183 121 16 28 26 11 28 20 356 352 344 183 177 183 177 171 172 171 176 169 179 189 184 185 193 194 192 198 201 212 223 213
296 285 277 295 335 346 352 347 345 346 348 353 5 15 7 12 30 351 329 2 22 351 351 337 181 186 177 176 175 172 171 176 179 185 187 192 193 195 194 196 200 208 154 215
290 314 339 348 12 2 355 345 338 326 340 335 346 344 345 338 319 331 346 337 8 336 317 353 321 214 183 177 178 180 183 176 180 183 187 193 193 197 196 201 196 202 204 206
242 328 327 329 345 353 347 339 336 326 326 314 297 305 327 325 311 307 313 313 311 309 302 291 281 274 191 187 183 185 188 177 182 183 199 189 196 199 202 199 204 206 212 197
356 320 308 316 318 321 315 316 315 306 301 311 298 286 267 257 252 267 282 292 305 307 302 289 288 305 243 197 187 188 189 195 189 197 192 194 201 199 203 204 206 206 208 198
272 252 294 311 316 315 307 303 276 270 285 288 294 280 261 249 233 235 251 271 259 264 275 277 280 268 263 221 206 192 194 194 198 200 204 201 196 202 202 207 210 211 199 190
305 289 285 280 276 273 274 272 275 265 259 268 272 273 269 247 247 232 225 234 243 239 262 265 288 294 292 235 205 207 199 204 209 204 204 207 205 205 206 205 210 211 208 202
263 278 277 271 269 267 262 261 256 254 257 248 253 258 258 258 234 229 227 237 246 253 247 261 260 267 265 264 201 212 214 209 209 222 211 210 212 206 205 208 210 215 214 209
281 277 272 268 265 263 255 250 248 247 248 245 241 246 247 248 244 240 229 225 233 237 244 248 253 255 250 247 230 207 215 218 221 211 228 212 216 213 206 205 210 212 214 214
274 270 269 266 260 256 252 249 252 249 244 249 232 231 234 238 240 236 240 221 225 232 246 259 261 274 277 249 241 225 214 218 218 225 221 223 216 220 215 206 210 211 209 209
266 264 262 259 258 254 253 243 239 242 241 241 238 226 223 229 237 237 237 217 221 231 238 242 248 246 250 256 246 228 222 218 217 220 230 245 221 218 214 218 208 206 213 204
265 262 252 250 249 250 248 238 238 239 238 236 237 219 219 222 230 228 221 228 235 245 251 250 248 248 244 244 235 224 220 214 214 213 222 233 240 235 236 228 222 207 201 203
278 271 262 259 256 239 239 228 227 224 224 231 230 214 213 217 224 224 220 225 232 234 234 243 252 253 242 228 228 221 223 217 201 196 201 217 228 234 268 229 187 212 173 145
285 277 277 277 238 234 226 213 217 224 225 226 222 213 207 215 217 219 223 229 236 244 251 251 259 257 236 220 207 214 216 192 179 175 181 203 207 186 159 151 142 156 146 160